FW2380 Weather Reports


time (UTC)temp
C
wind
direction
speed
KPH
gust
KPH
rain 1hr
cm
rain 24hr
cm
rain mn
cm
humidity
%
barometer
mb
20260504190052 24 348 3.2 14.5 0.00 0.00 0.00 30 1006.5
20260504184547 24 315 3.2 12.9 0.00 0.00 0.00 32 1006.6
20260504183043 23 92 0.0 11.3 0.00 0.00 0.00 34 1006.7
20260504181538 23 355 4.8 12.9 0.00 0.00 0.00 36 1006.8
20260504180038 22 16 3.2 9.7 0.00 0.00 0.00 37 1006.9
20260504174528 22 231 0.0 3.2 0.00 0.00 0.00 44 1007.0
20260504173024 21 231 0.0 8.0 0.00 0.00 0.00 48 1007.0
20260504171528 19 254 0.0 0.0 0.00 0.00 0.00 50 1007.0
20260504081559 10 243 0.0 0.0 0.00 0.00 0.00 40 1006.1
20260504080113 11 243 0.0 0.0 0.00 0.00 0.00 45 1006.1
20260504050008 15 209 0.0 0.0 0.00 0.00 0.00 57 1005.9
20260504044505 16 209 0.0 0.0 0.00 0.00 0.00 55 1006.0
20260504043112 16 209 0.0 0.0 0.00 0.00 0.00 54 1006.0
20260504041554 17 209 0.0 0.0 0.00 0.00 0.00 52 1005.9
20260504040113 18 209 0.0 0.0 0.00 0.00 0.00 50 1005.9
20260504034552 20 209 0.0 0.0 0.00 0.00 0.00 47 1005.7
20260504034505 20 209 0.0 0.0 0.00 0.00 0.00 47 1005.7
20260504033053 21 209 0.0 0.0 0.00 0.00 0.00 42 1005.7
20260504031557 22 209 0.0 0.0 0.00 0.00 0.00 40 1005.7
20260504030051 24 209 0.0 0.0 0.00 0.00 0.00 35 1005.7
20260504024549 26 209 0.0 0.0 0.00 0.00 0.00 30 1005.7
20260504023050 27 209 0.0 3.2 0.00 0.00 0.00 29 1005.6
20260504021540 28 212 0.0 0.0 0.00 0.00 0.00 24 1005.8
20260504020035 28 212 0.0 0.0 0.00 0.00 0.00 24 1005.9
20260504014530 28 212 0.0 0.0 0.00 0.00 0.00 23 1005.9
20260504013026 28 213 0.0 0.0 0.00 0.00 0.00 21 1006.1
20260504011522 28 220 0.0 0.0 0.00 0.00 0.00 22 1006.2
20260504010020 28 216 0.0 3.2 0.00 0.00 0.00 22 1006.3
20260504004514 28 246 0.0 6.4 0.00 0.00 0.00 24 1006.5
20260504003011 28 247 0.0 3.2 0.00 0.00 0.00 23 1006.7
20260504001505 27 355 1.6 6.4 0.00 0.00 0.00 25 1006.8
20260504000130 27 327 0.0 8.0 0.00 0.00 0.00 24 1006.9
20260503234557 27 282 3.2 12.9 0.00 0.00 0.00 24 1007.1
20260503233052 27 142 0.0 0.0 0.00 0.00 0.00 24 1007.2
20260503231548 28 225 3.2 8.0 0.00 0.00 0.00 23 1007.5
20260503230044 28 265 3.2 11.3 0.00 0.00 0.00 22 1007.7
20260503224539 28 259 4.8 11.3 0.00 0.00 0.00 22 1007.9
20260503223036 29 207 0.0 6.4 0.00 0.00 0.00 22 1008.1
20260503221531 28 244 1.6 9.7 0.00 0.00 0.00 24 1008.3
20260503220026 28 198 1.6 9.7 0.00 0.00 0.00 24 1008.5
20260503214522 27 299 0.0 0.0 0.00 0.00 0.00 25 1008.9
20260503213019 27 355 0.0 0.0 0.00 0.00 0.00 24 1009.0
20260503211512 27 319 0.0 6.4 0.00 0.00 0.00 23 1009.3
20260503210008 27 219 4.8 11.3 0.00 0.00 0.00 23 1009.5
20260503204506 26 30 0.0 8.0 0.00 0.00 0.00 24 1009.7
20260503203100 26 202 0.0 6.4 0.00 0.00 0.00 22 1009.9
20260503201556 26 360 3.2 12.9 0.00 0.00 0.00 24 1010.1
20260503200057 26 273 0.0 19.3 0.00 0.00 0.00 24 1010.3
20260503194547 25 265 3.2 19.3 0.00 0.00 0.00 25 1010.6
20260503193047 25 264 0.0 16.1 0.00 0.00 0.00 28 1010.7
20260503191537 25 319 3.2 12.9 0.00 0.00 0.00 27 1010.9